Location: Namasale
(1.5000°N, 32.6167°E)
Time: 17:19:46
(UTC+00:00)

Courier 1B - Pass Details

Date: 20 April 2021
Orbit: 962 x 1209 km, 28.3° (Epoch: 18 May)

Event Time Altitude Azimuth Distance (km) Brightness Sun altitude
Rises 15:37:58 0° 323° (NW) 3,647 11.3 2.9°
Reaches altitude 10° 15:41:21 10° 340° (NNW) 2,725 10.3 2.0°
Maximum altitude 15:46:03 20° 26° (NNE) 2,119 9.2 0.9°
Drops below altitude 10° 15:50:55 10° 71° (ENE) 2,832 9.4 -0.3°
Enters shadow 15:54:27 - 87° (E) 3,824 10.0 -1.2°
Sets 15:54:30 0° 87° (E) 3,835 - -1.2°
